17-07-2023, 00:00:07,    223,    0.3,   10.2,   0.00,   0.00, 1011.1,    0.4, -999.0
17-07-2023, 00:00:17,    223,    0.0,   10.3,   0.00,   0.00, 1011.0,    0.3, -999.0
17-07-2023, 00:00:27,    223,    0.0,   10.3,   0.00,   0.00, 1011.0,    0.5, -999.0
17-07-2023, 00:00:37,    223,    0.0,   10.3,   0.00,   0.00, 1011.0,    0.4, -999.0
17-07-2023, 00:00:47,    222,    0.0,   10.3,   0.00,   0.00, 1011.0,    0.5, -999.0
17-07-2023, 00:00:57,    223,    0.0,   10.3,   0.00,   0.00, 1011.0,    0.4, -999.0
17-07-2023, 00:01:07,    222,    0.0,   10.3,   0.00,   0.00, 1011.0,    0.4, -999.0
17-07-2023, 00:01:17,    223,    0.0,   10.3,   0.00,   0.00, 1011.0,    0.2, -999.0
17-07-2023, 00:01:27,    223,    0.0,   10.3,   0.00,   0.00, 1011.0,    0.3, -999.0
17-07-2023, 00:01:37,    233,    0.4,   10.4,   0.00,   0.00, 1011.1,    0.9, -999.0
17-07-2023, 00:01:47,    231,    0.0,   10.3,   0.00,   0.00, 1011.0,    0.4, -999.0
17-07-2023, 00:01:57,    232,    0.0,   10.3,   0.00,   0.00, 1011.0,    0.7, -999.0
17-07-2023, 00:02:07,    233,    0.0,   10.3,   0.00,   0.00, 1011.0,    0.7, -999.0
17-07-2023, 00:02:17,    231,    0.0,   10.3,   0.00,   0.00, 1011.0,    0.4, -999.0
17-07-2023, 00:02:27,    232,    0.0,   10.2,   0.00,   0.00, 1011.0,    0.3, -999.0
17-07-2023, 00:02:37,    231,    0.0,   10.2,   0.00,   0.00, 1011.0,    0.4, -999.0
17-07-2023, 00:02:47,    234,    0.0,   10.2,   0.00,   0.00, 1011.0,    0.5, -999.0
17-07-2023, 00:02:57,    232,    0.0,   10.3,   0.00,   0.00, 1011.0,    0.4, -999.0
17-07-2023, 00:03:07,    231,    0.0,   10.3,   0.00,   0.00, 1011.0,    0.6, -999.0
17-07-2023, 00:03:17,    237,    0.0,   10.3,   0.00,   0.00, 1011.0,    0.3, -999.0
17-07-2023, 00:03:27,    231,    0.0,   10.3,   0.00,   0.00, 1011.0,    0.6, -999.0
17-07-2023, 00:03:37,    231,    0.0,   10.3,   0.00,   0.00, 1011.0,    0.4, -999.0
17-07-2023, 00:03:47,    233,    0.0,   10.3,   0.00,   0.00, 1011.0,    0.5, -999.0
17-07-2023, 00:03:57,    209,    0.9,   10.3,   0.00,   0.00, 1011.1,    0.8, -999.0
17-07-2023, 00:04:07,    210,    1.8,   10.4,   0.00,   0.00, 1011.2,    0.4, -999.0
17-07-2023, 00:04:17,    207,    0.6,   10.4,   0.00,   0.00, 1011.2,    0.4, -999.0
17-07-2023, 00:04:26,    220,    0.2,   10.4,   0.00,   0.00, 1011.1,    0.5, -999.0
17-07-2023, 00:04:37,    219,    0.0,   10.3,   0.00,   0.00, 1011.0,    0.3, -999.0
17-07-2023, 00:04:47,    220,    0.0,   10.3,   0.00,   0.00, 1011.0,    0.4, -999.0
17-07-2023, 00:04:57,    220,    0.0,   10.2,   0.00,   0.00, 1011.0,    0.3, -999.0
17-07-2023, 00:05:06,    219,    0.0,   10.3,   0.00,   0.00, 1011.0,    0.6, -999.0
17-07-2023, 00:05:17,    219,    0.0,   10.3,   0.00,   0.00, 1011.0,    0.3, -999.0
17-07-2023, 00:05:27,    211,    0.4,   10.3,   0.00,   0.00, 1011.1,    0.5, -999.0
17-07-2023, 00:05:36,    211,    0.1,   10.3,   0.00,   0.00, 1011.1,    0.1, -999.0
17-07-2023, 00:05:46,    211,    0.5,   10.4,   0.00,   0.00, 1011.1,    0.3, -999.0
17-07-2023, 00:05:57,    201,    0.6,   10.3,   0.00,   0.00, 1011.1,    0.4, -999.0
17-07-2023, 00:06:06,    210,    1.1,   10.4,   0.00,   0.00, 1011.2,    0.5, -999.0
17-07-2023, 00:06:16,    210,    0.0,   10.3,   0.00,   0.00, 1011.0,    0.7, -999.0
17-07-2023, 00:06:26,    210,    0.0,   10.4,   0.00,   0.00, 1011.0,    0.0, -999.0
17-07-2023, 00:06:37,    209,    0.0,   10.4,   0.00,   0.00, 1011.0,    0.3, -999.0
17-07-2023, 00:06:46,    211,    0.0,   10.3,   0.00,   0.00, 1011.0,    0.5, -999.0
17-07-2023, 00:06:56,    209,    0.0,   10.3,   0.00,   0.00, 1011.0,    0.6, -999.0
17-07-2023, 00:07:06,    210,    0.0,   10.4,   0.00,   0.00, 1011.1,    0.2, -999.0
17-07-2023, 00:07:16,    209,    0.0,   10.3,   0.00,   0.00, 1011.0,    0.3, -999.0
17-07-2023, 00:07:26,    209,    0.0,   10.4,   0.00,   0.00, 1011.0,    0.6, -999.0
17-07-2023, 00:07:36,    209,    0.0,   10.4,   0.00,   0.00, 1011.0,    0.5, -999.0
17-07-2023, 00:07:46,    210,    0.7,   10.4,   0.00,   0.00, 1011.2,    0.5, -999.0
17-07-2023, 00:07:56,    208,    0.0,   10.3,   0.00,   0.00, 1011.1,    0.5, -999.0
17-07-2023, 00:08:06,    209,    0.0,   10.3,   0.00,   0.00, 1011.0,    0.6, -999.0
17-07-2023, 00:08:16,    209,    0.0,   10.3,   0.00,   0.00, 1011.0,    0.5, -999.0
17-07-2023, 00:08:26,    209,    0.0,   10.3,   0.00,   0.00, 1011.0,    0.6, -999.0
17-07-2023, 00:08:36,    209,    0.0,   10.4,   0.00,   0.00, 1011.0,    0.4, -999.0
17-07-2023, 00:08:46,    209,    0.0,   10.4,   0.00,   0.00, 1011.0,    0.2, -999.0
17-07-2023, 00:08:56,    210,    0.0,   10.3,   0.00,   0.00, 1011.0,    0.5, -999.0
17-07-2023, 00:09:06,    209,    0.0,   10.3,   0.00,   0.00, 1011.0,    0.5, -999.0
17-07-2023, 00:09:16,    210,    0.3,   10.4,   0.00,   0.00, 1011.1,    0.4, -999.0
17-07-2023, 00:09:26,    212,    0.2,   10.4,   0.00,   0.00, 1011.1,    0.4, -999.0
17-07-2023, 00:09:36,    212,    0.0,   10.3,   0.00,   0.00, 1011.0,    0.5, -999.0
17-07-2023, 00:09:46,    212,    0.0,   10.3,   0.00,   0.00, 1011.0,    0.3, -999.0
17-07-2023, 00:09:56,    212,    0.0,   10.3,   0.00,   0.00, 1011.0,    0.4, -999.0
17-07-2023, 00:10:06,    211,    0.0,   10.4,   0.00,   0.00, 1011.0,    0.5, -999.0
17-07-2023, 00:10:16,    211,    0.0,   10.4,   0.00,   0.00, 1011.0,    0.4, -999.0
17-07-2023, 00:10:26,    211,    0.0,   10.3,   0.00,   0.00, 1011.0,    0.7, -999.0
17-07-2023, 00:10:36,    211,    0.0,   10.3,   0.00,   0.00, 1011.0,    0.4, -999.0
17-07-2023, 00:10:46,    211,    0.0,   10.3,   0.00,   0.00, 1011.0,    0.6, -999.0
17-07-2023, 00:10:56,    210,    0.0,   10.4,   0.00,   0.00, 1011.0,    0.3, -999.0
17-07-2023, 00:11:06,    211,    0.0,   10.3,   0.00,   0.00, 1011.0,    0.5, -999.0
17-07-2023, 00:11:16,    210,    0.3,   10.4,   0.00,   0.00, 1011.1,    0.7, -999.0
17-07-2023, 00:11:26,    210,    0.0,   10.3,   0.00,   0.00, 1011.0,    1.0, -999.0
17-07-2023, 00:11:36,    212,    0.0,   10.3,   0.00,   0.00, 1011.0,    0.8, -999.0
17-07-2023, 00:11:46,    212,    0.0,   10.2,   0.00,   0.00, 1011.0,    0.4, -999.0
17-07-2023, 00:11:56,    212,    0.0,   10.3,   0.00,   0.00, 1011.0,    0.5, -999.0
17-07-2023, 00:12:06,    216,    0.7,   10.4,   0.00,   0.00, 1011.1,    0.4, -999.0
17-07-2023, 00:12:15,    206,    0.0,   10.4,   0.00,   0.00, 1011.0,    0.4, -999.0
17-07-2023, 00:12:26,    205,    0.0,   10.3,   0.00,   0.00, 1011.0,    0.4, -999.0
17-07-2023, 00:12:36,    205,    0.0,   10.3,   0.00,   0.00, 1011.0,    0.3, -999.0
17-07-2023, 00:12:45,    205,    0.0,   10.3,   0.00,   0.00, 1011.0,    0.6, -999.0
17-07-2023, 00:12:55,    205,    0.0,   10.3,   0.00,   0.00, 1011.0,    0.5, -999.0
17-07-2023, 00:13:06,    205,    0.0,   10.3,   0.00,   0.00, 1011.0,    0.5, -999.0
17-07-2023, 00:13:16,    205,    0.0,   10.3,   0.00,   0.00, 1011.0,    0.5, -999.0
17-07-2023, 00:13:25,    205,    0.0,   10.3,   0.00,   0.00, 1011.0,    0.3, -999.0
17-07-2023, 00:13:36,    205,    0.0,   10.4,   0.00,   0.00, 1011.0,    0.3, -999.0
17-07-2023, 00:13:46,    205,    0.0,   10.3,   0.00,   0.00, 1011.0,    0.5, -999.0
17-07-2023, 00:13:55,    205,    0.0,   10.3,   0.00,   0.00, 1011.0,    0.3, -999.0
17-07-2023, 00:14:05,    205,    0.0,   10.3,   0.00,   0.00, 1011.0,    0.3, -999.0
17-07-2023, 00:14:15,    204,    0.3,   10.3,   0.00,   0.00, 1011.1,    0.6, -999.0
17-07-2023, 00:14:25,    204,    0.1,   10.4,   0.00,   0.00, 1011.0,    0.6, -999.0
17-07-2023, 00:14:35,    204,    0.0,   10.3,   0.00,   0.00, 1011.0,    0.3, -999.0
17-07-2023, 00:14:45,    197,    0.3,   10.4,   0.00,   0.00, 1011.0,    0.2, -999.0
17-07-2023, 00:14:55,    197,    0.4,   10.4,   0.00,   0.00, 1011.1,    0.4, -999.0
17-07-2023, 00:15:05,    197,    0.0,   10.4,   0.00,   0.00, 1011.0,    0.3, -999.0
17-07-2023, 00:15:15,    196,    0.0,   10.3,   0.00,   0.00, 1011.0,    0.4, -999.0
17-07-2023, 00:15:25,    196,    0.0,   10.3,   0.00,   0.00, 1011.0,    0.3, -999.0
17-07-2023, 00:15:35,    196,    0.0,   10.3,   0.00,   0.00, 1011.0,    0.5, -999.0
17-07-2023, 00:15:45,    196,    0.0,   10.3,   0.00,   0.00, 1011.0,    0.3, -999.0
17-07-2023, 00:15:55,    196,    0.0,   10.3,   0.00,   0.00, 1011.0,    0.4, -999.0
17-07-2023, 00:16:05,    242,    1.7,   10.4,   0.00,   0.00, 1011.1,    0.3, -999.0
17-07-2023, 00:16:15,    235,    1.2,   10.5,   0.00,   0.00, 1011.1,    0.7, -999.0
17-07-2023, 00:16:25,    231,    0.6,   10.5,   0.00,   0.00, 1011.1,    0.8, -999.0
17-07-2023, 00:16:35,    231,    0.0,   10.4,   0.00,   0.00, 1011.0,    0.5, -999.0
17-07-2023, 00:16:45,    231,    0.0,   10.4,   0.00,   0.00, 1011.0,    0.3, -999.0
17-07-2023, 00:16:55,    230,    0.0,   10.4,   0.00,   0.00, 1011.0,    0.4, -999.0
17-07-2023, 00:17:05,    231,    0.0,   10.4,   0.00,   0.00, 1011.0,    0.4, -999.0
17-07-2023, 00:17:15,    231,    0.0,   10.4,   0.00,   0.00, 1011.0,    0.3, -999.0
17-07-2023, 00:17:25,    231,    0.0,   10.4,   0.00,   0.00, 1011.0,    0.5, -999.0
17-07-2023, 00:17:35,    231,    0.0,   10.4,   0.00,   0.00, 1011.0,    0.6, -999.0
17-07-2023, 00:17:45,    223,    0.0,   10.4,   0.00,   0.00, 1011.0,    0.5, -999.0
17-07-2023, 00:17:55,    223,    0.0,   10.4,   0.00,   0.00, 1011.0,    0.4, -999.0
17-07-2023, 00:18:05,    223,    0.0,   10.4,   0.00,   0.00, 1011.0,    0.6, -999.0
17-07-2023, 00:18:15,    223,    0.0,   10.4,   0.00,   0.00, 1011.0,    0.5, -999.0
17-07-2023, 00:18:25,    222,    0.0,   10.4,   0.00,   0.00, 1011.0,    0.4, -999.0
17-07-2023, 00:18:35,    222,    0.0,   10.4,   0.00,   0.00, 1011.0,    0.3, -999.0
17-07-2023, 00:18:45,    222,    0.0,   10.3,   0.00,   0.00, 1011.0,    0.6, -999.0
17-07-2023, 00:18:55,    221,    0.0,   10.3,   0.00,   0.00, 1011.0,    0.6, -999.0
17-07-2023, 00:19:05,    222,    0.0,   10.4,   0.00,   0.00, 1011.0,    0.5, -999.0
17-07-2023, 00:19:15,    222,    0.0,   10.4,   0.00,   0.00, 1011.0,    0.4, -999.0
17-07-2023, 00:19:24,    222,    0.0,   10.3,   0.00,   0.00, 1011.0,    0.4, -999.0
17-07-2023, 00:19:35,    220,    0.6,   10.5,   0.00,   0.00, 1011.1,    0.5, -999.0
17-07-2023, 00:19:45,    201,    0.8,   10.5,   0.00,   0.00, 1011.1,    0.4, -999.0
17-07-2023, 00:19:54,    237,    0.2,   10.4,   0.00,   0.00, 1011.1,    0.3, -999.0
17-07-2023, 00:20:05,    235,    0.8,   10.4,   0.00,   0.00, 1011.1,    0.5, -999.0
17-07-2023, 00:20:15,    214,    1.4,   10.4,   0.00,   0.00, 1011.1,    0.6, -999.0
17-07-2023, 00:20:25,    218,    1.2,   10.5,   0.00,   0.00, 1011.2,    0.6, -999.0
17-07-2023, 00:20:34,    209,    3.0,   10.5,   0.00,   0.00, 1011.2,    0.5, -999.0
17-07-2023, 00:20:45,    217,    2.3,   10.5,   0.00,   0.00, 1011.1,    0.6, -999.0
17-07-2023, 00:20:55,    216,    0.6,   10.5,   0.00,   0.00, 1011.1,    0.9, -999.0
17-07-2023, 00:21:04,    218,    0.2,   10.5,   0.00,   0.00, 1011.1,    0.5, -999.0
17-07-2023, 00:21:14,    219,    0.3,   10.5,   0.00,   0.00, 1011.1,    0.5, -999.0
17-07-2023, 00:21:25,    219,    0.0,   10.6,   0.00,   0.00, 1011.1,    0.6, -999.0
17-07-2023, 00:21:34,    219,    0.0,   10.4,   0.00,   0.00, 1011.0,    0.4, -999.0
17-07-2023, 00:21:44,    221,    0.0,   10.4,   0.00,   0.00, 1011.0,    0.5, -999.0
17-07-2023, 00:21:54,    222,    0.0,   10.3,   0.00,   0.00, 1011.0,    0.5, -999.0
17-07-2023, 00:22:05,    222,    0.0,   10.4,   0.00,   0.00, 1011.0,    0.6, -999.0
17-07-2023, 00:22:14,    221,    0.0,   10.5,   0.00,   0.00, 1011.0,    0.5, -999.0
17-07-2023, 00:22:24,    210,    0.3,   10.5,   0.00,   0.00, 1011.1,    0.4, -999.0
17-07-2023, 00:22:35,    210,    1.0,   10.5,   0.00,   0.00, 1011.1,    0.6, -999.0
17-07-2023, 00:22:44,    194,    1.1,   10.6,   0.00,   0.00, 1011.2,    0.6, -999.0
17-07-2023, 00:22:54,    205,    0.6,   10.6,   0.00,   0.00, 1011.2,    0.5, -999.0
17-07-2023, 00:23:04,    203,    0.5,   10.6,   0.00,   0.00, 1011.2,    0.4, -999.0
17-07-2023, 00:23:14,    225,    1.0,   10.5,   0.00,   0.00, 1011.2,    0.5, -999.0
17-07-2023, 00:23:24,    225,    0.2,   10.4,   0.00,   0.00, 1011.1,    0.3, -999.0
17-07-2023, 00:23:34,    225,    0.0,   10.4,   0.00,   0.00, 1011.0,    0.5, -999.0
17-07-2023, 00:23:44,    214,    0.0,   10.5,   0.00,   0.00, 1011.0,    0.5, -999.0
17-07-2023, 00:23:54,    214,    0.2,   10.6,   0.00,   0.00, 1011.1,    0.5, -999.0
17-07-2023, 00:24:04,    216,    0.0,   10.5,   0.00,   0.00, 1011.0,    0.6, -999.0
17-07-2023, 00:24:14,    214,    0.0,   10.4,   0.00,   0.00, 1011.0,    0.5, -999.0
17-07-2023, 00:24:24,    222,    1.1,   10.6,   0.00,   0.00, 1011.2,    0.4, -999.0
17-07-2023, 00:24:34,    215,    0.3,   10.5,   0.00,   0.00, 1011.1,    0.5, -999.0
17-07-2023, 00:24:44,    215,    0.0,   10.4,   0.00,   0.00, 1011.1,    0.7, -999.0
17-07-2023, 00:24:54,    222,    1.4,   10.5,   0.00,   0.00, 1011.2,    0.5, -999.0
17-07-2023, 00:25:04,    206,    1.8,   10.6,   0.00,   0.00, 1011.2,    0.8, -999.0
17-07-2023, 00:25:14,    207,    0.4,   10.6,   0.00,   0.00, 1011.1,    0.7, -999.0
17-07-2023, 00:25:24,    191,    0.8,   10.6,   0.00,   0.00, 1011.2,    0.5, -999.0
17-07-2023, 00:25:34,    191,    0.1,   10.5,   0.00,   0.00, 1011.1,    0.3, -999.0
17-07-2023, 00:25:44,    191,    0.0,   10.5,   0.00,   0.00, 1011.1,    0.3, -999.0
17-07-2023, 00:25:54,    193,    0.0,   10.5,   0.00,   0.00, 1011.1,    0.4, -999.0
17-07-2023, 00:26:04,    208,    0.9,   10.5,   0.00,   0.00, 1011.1,    0.7, -999.0
17-07-2023, 00:26:14,    208,    0.7,   10.6,   0.00,   0.00, 1011.2,    0.5, -999.0
17-07-2023, 00:26:24,    201,    0.7,   10.6,   0.00,   0.00, 1011.2,    0.6, -999.0
17-07-2023, 00:26:34,    209,    1.3,   10.6,   0.00,   0.00, 1011.2,    0.5, -999.0
17-07-2023, 00:26:44,    209,    0.3,   10.6,   0.00,   0.00, 1011.2,    0.6, -999.0
17-07-2023, 00:26:54,    208,    0.2,   10.5,   0.00,   0.00, 1011.1,    0.4, -999.0
17-07-2023, 00:27:04,    206,    0.0,   10.5,   0.00,   0.00, 1011.0,    0.5, -999.0
17-07-2023, 00:27:14,    207,    0.0,   10.4,   0.00,   0.00, 1011.1,    0.5, -999.0
17-07-2023, 00:27:24,    213,    0.6,   10.6,   0.00,   0.00, 1011.1,    0.5, -999.0
17-07-2023, 00:27:33,    222,    0.5,   10.5,   0.00,   0.00, 1011.1,    0.5, -999.0
17-07-2023, 00:27:44,    221,    0.2,   10.5,   0.00,   0.00, 1011.1,    0.4, -999.0
17-07-2023, 00:27:54,    221,    0.0,   10.5,   0.00,   0.00, 1011.0,    0.4, -999.0
17-07-2023, 00:28:03,    226,    0.3,   10.5,   0.00,   0.00, 1011.1,    0.5, -999.0
17-07-2023, 00:28:13,    225,    0.0,   10.5,   0.00,   0.00, 1011.0,    0.9, -999.0
17-07-2023, 00:28:24,    225,    0.0,   10.5,   0.00,   0.00, 1011.0,    0.7, -999.0
17-07-2023, 00:28:34,    221,    0.0,   10.5,   0.00,   0.00, 1011.0,    0.3, -999.0
17-07-2023, 00:28:43,    185,    0.4,   10.5,   0.00,   0.00, 1011.1,    0.4, -999.0
17-07-2023, 00:28:53,    185,    0.4,   10.6,   0.00,   0.00, 1011.1,    0.1, -999.0
17-07-2023, 00:29:04,    201,    0.5,   10.5,   0.00,   0.00, 1011.1,    0.4, -999.0
17-07-2023, 00:29:13,    208,    0.5,   10.5,   0.00,   0.00, 1011.1,    0.4, -999.0
17-07-2023, 00:29:23,    204,    0.0,   10.4,   0.00,   0.00, 1011.0,    0.1, -999.0
17-07-2023, 00:29:34,    207,    0.0,   10.4,   0.00,   0.00, 1011.0,    0.1, -999.0
17-07-2023, 00:29:43,    207,    0.0,   10.4,   0.00,   0.00, 1011.0,    0.9, -999.0
17-07-2023, 00:29:53,    215,    0.3,   10.5,   0.00,   0.00, 1011.1,    0.3, -999.0
17-07-2023, 00:30:03,    216,    1.0,   10.5,   0.00,   0.00, 1011.2,    0.6, -999.0
17-07-2023, 00:30:14,    194,    0.9,   10.5,   0.00,   0.00, 1011.2,    0.6, -999.0
17-07-2023, 00:30:23,    188,    0.3,   10.5,   0.00,   0.00, 1011.2,    0.3, -999.0
17-07-2023, 00:30:33,    195,    0.6,   10.5,   0.00,   0.00, 1011.2,    0.5, -999.0
17-07-2023, 00:30:43,    189,    1.6,   10.5,   0.00,   0.00, 1011.2,    0.5, -999.0
17-07-2023, 00:30:53,    193,    0.9,   10.5,   0.00,   0.00, 1011.2,    0.5, -999.0
17-07-2023, 00:31:03,    220,    0.7,   10.5,   0.00,   0.00, 1011.1,    0.4, -999.0
17-07-2023, 00:31:13,    220,    0.0,   10.4,   0.00,   0.00, 1011.0,    0.3, -999.0
17-07-2023, 00:31:23,    220,    0.6,   10.4,   0.00,   0.00, 1011.1,    0.5, -999.0
17-07-2023, 00:31:33,    176,    0.7,   10.5,   0.00,   0.00, 1011.2,    0.6, -999.0
17-07-2023, 00:31:43,    177,    0.0,   10.4,   0.00,   0.00, 1011.1,    0.6, -999.0
17-07-2023, 00:31:53,    215,    1.3,   10.5,   0.00,   0.00, 1011.2,    0.6, -999.0
17-07-2023, 00:32:03,    192,    0.6,   10.5,   0.00,   0.00, 1011.1,    0.2, -999.0
17-07-2023, 00:32:13,    192,    0.0,   10.5,   0.00,   0.00, 1011.1,    0.7, -999.0
17-07-2023, 00:32:23,    192,    0.0,   10.4,   0.00,   0.00, 1011.1,    0.2, -999.0
17-07-2023, 00:32:33,    191,    0.0,   10.2,   0.00,   0.00, 1011.1,    0.7, -999.0
17-07-2023, 00:32:43,    192,    0.0,   10.3,   0.00,   0.00, 1011.1,    0.3, -999.0
17-07-2023, 00:32:53,    196,    0.4,   10.5,   0.00,   0.00, 1011.2,    0.4, -999.0
17-07-2023, 00:33:03,    195,    0.0,   10.5,   0.00,   0.00, 1011.0,    0.6, -999.0
17-07-2023, 00:33:13,    195,    0.0,   10.4,   0.00,   0.00, 1011.0,    0.1, -999.0
17-07-2023, 00:33:23,    195,    0.0,   10.4,   0.00,   0.00, 1011.1,    0.2, -999.0
17-07-2023, 00:33:33,    200,    0.0,   10.4,   0.00,   0.00, 1011.1,    0.6, -999.0
17-07-2023, 00:33:43,    225,    1.1,   10.5,   0.00,   0.00, 1011.2,    0.5, -999.0
17-07-2023, 00:33:53,    227,    0.0,   10.4,   0.00,   0.00, 1011.1,    0.8, -999.0
17-07-2023, 00:34:03,    228,    0.0,   10.5,   0.00,   0.00, 1011.0,    0.4, -999.0
17-07-2023, 00:34:13,    225,    0.0,   10.4,   0.00,   0.00, 1011.0,    0.7, -999.0
17-07-2023, 00:34:23,    225,    0.0,   10.4,   0.00,   0.00, 1011.1,    0.4, -999.0
17-07-2023, 00:34:33,    224,    0.3,   10.4,   0.00,   0.00, 1011.1,    0.3, -999.0
17-07-2023, 00:34:43,    223,    0.0,   10.4,   0.00,   0.00, 1011.0,    0.6, -999.0
17-07-2023, 00:34:53,    224,    0.0,   10.4,   0.00,   0.00, 1011.1,    0.7, -999.0
17-07-2023, 00:35:03,    223,    0.0,   10.4,   0.00,   0.00, 1011.0,    0.3, -999.0
17-07-2023, 00:35:12,    207,    0.8,   10.4,   0.00,   0.00, 1011.1,    0.5, -999.0
17-07-2023, 00:35:23,    199,    0.1,   10.4,   0.00,   0.00, 1011.1,    0.6, -999.0
17-07-2023, 00:35:33,    199,    0.3,   10.4,   0.00,   0.00, 1011.1,    0.2, -999.0
17-07-2023, 00:35:43,    209,    0.7,   10.5,   0.00,   0.00, 1011.2,    0.4, -999.0
17-07-2023, 00:35:52,    206,    0.9,   10.5,   0.00,   0.00, 1011.2,    0.6, -999.0
17-07-2023, 00:36:03,    223,    0.5,   10.5,   0.00,   0.00, 1011.2,    0.6, -999.0
17-07-2023, 00:36:13,    220,    0.3,   10.5,   0.00,   0.00, 1011.2,    0.6, -999.0
17-07-2023, 00:36:22,    220,    0.0,   10.4,   0.00,   0.00, 1011.1,    0.4, -999.0
17-07-2023, 00:36:32,    221,    0.1,   10.5,   0.00,   0.00, 1011.1,    0.5, -999.0
17-07-2023, 00:36:43,    222,    0.3,   10.5,   0.00,   0.00, 1011.1,    0.7, -999.0
17-07-2023, 00:36:52,    221,    0.0,   10.4,   0.00,   0.00, 1011.0,    0.5, -999.0
17-07-2023, 00:37:02,    221,    0.2,   10.5,   0.00,   0.00, 1011.1,    0.3, -999.0
17-07-2023, 00:37:12,    220,    0.3,   10.5,   0.00,   0.00, 1011.1,    0.5, -999.0
17-07-2023, 00:37:23,    218,    1.2,   10.6,   0.00,   0.00, 1011.2,    0.4, -999.0
17-07-2023, 00:37:32,    217,    0.0,   10.4,   0.00,   0.00, 1011.0,    0.6, -999.0
17-07-2023, 00:37:42,    217,    0.0,   10.4,   0.00,   0.00, 1011.0,    0.2, -999.0
17-07-2023, 00:37:53,    214,    0.6,   10.5,   0.00,   0.00, 1011.2,    0.5, -999.0
17-07-2023, 00:38:02,    215,    0.8,   10.5,   0.00,   0.00, 1011.1,    0.7, -999.0
17-07-2023, 00:38:12,    213,    0.6,   10.5,   0.00,   0.00, 1011.2,    0.6, -999.0
17-07-2023, 00:38:22,    213,    0.1,   10.5,   0.00,   0.00, 1011.1,    0.6, -999.0
17-07-2023, 00:38:32,    213,    0.0,   10.5,   0.00,   0.00, 1011.0,    0.4, -999.0
17-07-2023, 00:38:42,    217,    0.5,   10.5,   0.00,   0.00, 1011.2,    0.6, -999.0
17-07-2023, 00:38:52,    217,    0.8,   10.5,   0.00,   0.00, 1011.2,    0.6, -999.0
17-07-2023, 00:39:02,    171,    0.6,   10.5,   0.00,   0.00, 1011.1,    0.4, -999.0
17-07-2023, 00:39:12,    175,    0.0,   10.4,   0.00,   0.00, 1011.0,    0.3, -999.0
17-07-2023, 00:39:22,    218,    0.3,   10.4,   0.00,   0.00, 1011.1,    0.7, -999.0
17-07-2023, 00:39:32,    225,    0.6,   10.5,   0.00,   0.00, 1011.2,    0.6, -999.0
17-07-2023, 00:39:42,    209,    0.2,   10.4,   0.00,   0.00, 1011.1,    0.4, -999.0
17-07-2023, 00:39:52,    207,    1.3,   10.5,   0.00,   0.00, 1011.2,    0.4, -999.0
17-07-2023, 00:40:02,    227,    0.6,   10.4,   0.00,   0.00, 1011.1,    0.6, -999.0
17-07-2023, 00:40:12,    215,    0.4,   10.4,   0.00,   0.00, 1011.1,    0.3, -999.0
17-07-2023, 00:40:22,    209,    1.0,   10.5,   0.00,   0.00, 1011.2,    0.5, -999.0
17-07-2023, 00:40:32,    208,    0.2,   10.5,   0.00,   0.00, 1011.2,    0.2, -999.0
17-07-2023, 00:40:42,    209,    0.0,   10.4,   0.00,   0.00, 1011.1,    0.3, -999.0
17-07-2023, 00:40:52,    228,    0.7,   10.5,   0.00,   0.00, 1011.2,    0.4, -999.0
17-07-2023, 00:41:02,    229,    0.2,   10.4,   0.00,   0.00, 1011.1,    0.3, -999.0
17-07-2023, 00:41:12,    229,    0.0,   10.3,   0.00,   0.00, 1011.1,    0.5, -999.0
17-07-2023, 00:41:22,    228,    0.0,   10.4,   0.00,   0.00, 1011.0,    0.4, -999.0
17-07-2023, 00:41:32,    228,    0.0,   10.4,   0.00,   0.00, 1011.0,    0.7, -999.0
17-07-2023, 00:41:42,    228,    0.0,   10.3,   0.00,   0.00, 1011.0,    0.4, -999.0
17-07-2023, 00:41:52,    224,    0.0,   10.4,   0.00,   0.00, 1011.0,    0.7, -999.0
17-07-2023, 00:42:02,    224,    0.0,   10.4,   0.00,   0.00, 1011.1,    0.4, -999.0
17-07-2023, 00:42:12,    220,    0.0,   10.4,   0.00,   0.00, 1011.0,    0.5, -999.0
17-07-2023, 00:42:22,    220,    0.0,   10.4,   0.00,   0.00, 1011.0,    0.2, -999.0
17-07-2023, 00:42:32,    220,    0.0,   10.3,   0.00,   0.00, 1011.0,    0.5, -999.0
17-07-2023, 00:42:42,    219,    0.0,   10.4,   0.00,   0.00, 1011.0,    0.7, -999.0
17-07-2023, 00:42:51,    219,    0.1,   10.4,   0.00,   0.00, 1011.1,    0.7, -999.0
17-07-2023, 00:43:02,    219,    0.0,   10.4,   0.00,   0.00, 1011.1,    0.6, -999.0
17-07-2023, 00:43:12,    219,    0.1,   10.4,   0.00,   0.00, 1011.1,    0.1, -999.0
17-07-2023, 00:43:22,    208,    0.4,   10.4,   0.00,   0.00, 1011.1,    0.6, -999.0
17-07-2023, 00:43:31,    200,    0.8,   10.4,   0.00,   0.00, 1011.2,    0.6, -999.0
17-07-2023, 00:43:42,    200,    0.0,   10.3,   0.00,   0.00, 1011.0,    0.4, -999.0
17-07-2023, 00:43:52,    200,    0.0,   10.3,   0.00,   0.00, 1011.1,    0.5, -999.0
17-07-2023, 00:44:01,    200,    0.2,   10.4,   0.00,   0.00, 1011.1,    0.4, -999.0
17-07-2023, 00:44:11,    200,    0.0,   10.4,   0.00,   0.00, 1011.1,    0.3, -999.0
17-07-2023, 00:44:22,    200,    0.5,   10.3,   0.00,   0.00, 1011.1,    0.6, -999.0
17-07-2023, 00:44:31,    204,    0.8,   10.4,   0.00,   0.00, 1011.2,    0.7, -999.0
17-07-2023, 00:44:41,    218,    0.8,   10.4,   0.00,   0.00, 1011.2,    0.6, -999.0
17-07-2023, 00:44:52,    210,    0.3,   10.4,   0.00,   0.00, 1011.1,    0.4, -999.0
17-07-2023, 00:45:02,    210,    1.4,   10.4,   0.00,   0.00, 1011.2,    0.5, -999.0
17-07-2023, 00:45:11,    211,    0.6,   10.4,   0.00,   0.00, 1011.1,    0.6, -999.0
17-07-2023, 00:45:21,    200,    0.3,   10.4,   0.00,   0.00, 1011.1,    0.3, -999.0
17-07-2023, 00:45:32,    200,    0.2,   10.3,   0.00,   0.00, 1011.1,    0.5, -999.0
17-07-2023, 00:45:41,    196,    0.4,   10.3,   0.00,   0.00, 1011.1,    0.2, -999.0
17-07-2023, 00:45:51,    209,    1.4,   10.3,   0.00,   0.00, 1011.2,    0.4, -999.0
17-07-2023, 00:46:01,    214,    0.9,   10.4,   0.00,   0.00, 1011.1,    0.4, -999.0
17-07-2023, 00:46:11,    213,    0.0,   10.3,   0.00,   0.00, 1011.0,    0.4, -999.0
17-07-2023, 00:46:21,    211,    0.1,   10.3,   0.00,   0.00, 1011.1,    0.7, -999.0
17-07-2023, 00:46:31,    211,    0.0,   10.4,   0.00,   0.00, 1011.1,    0.9, -999.0
17-07-2023, 00:46:41,    211,    0.0,   10.3,   0.00,   0.00, 1011.1,    0.5, -999.0
17-07-2023, 00:46:51,    211,    0.0,   10.2,   0.00,   0.00, 1011.1,    0.2, -999.0